Regional Weather Roundup
Issued by NWS Midland/Odessa, TX

Skip options and go directly to product.
Home | Oldest Version | Previous Version | Current Version | All | Graphics & Text | Save Text | Print | Product List | Glossary On

Skip product version selection by date and time.   
603
ASUS44 KMAF 180710
RWRMAF
MIDLAND AREA WEATHER ROUNDUP
NATIONAL WEATHER SERVICE MIDLAND TX
200 AM CDT THU SEP 18 2014

...IN SOUTHWEST TEXAS AND SOUTHEAST NEW MEXICO...

CITY           SKY/WX    TMP DP  RH WIND       PRES   REMARKS
ALPINE         MOCLDY    66  62  87 W3        30.08F
ANDREWS        FAIR      66  65  96 SE13      30.00F
ARTESIA        NOT AVBL
BIG SPRING     CLOUDY    74  71  91 E8        30.00F
CARLSBAD       LGT RAIN  70 N/A N/A NW5       29.99R
DRYDEN           N/A     78  71  79 N5        29.89F
FORT STOCKTON  MOCLDY    72  66  81 SE9       29.95F
GUAD PASS        N/A     62  60  93 NW13      30.12S FOG
HOBBS          CLOUDY    66  66 100 E9        30.03R
MARFA          CLOUDY    66  63  88 S5        30.07F
MIDLAND AIRPK  LGT RAIN  70  70 100 E7        29.98F
MIDLAND INTL   LGT RAIN  71  66  84 E12       29.98F
ODESSA         LGT RAIN  70  66  87 E13       29.99F
PECOS          CLOUDY    75  66  72 SE8       29.92S
PRESIDIO       FAIR      79  64  61 NE9       29.90F
SEMINOLE       PTCLDY    67  66  97 SE9       30.01F
SNYDER         DRIZZLE   70  68  95 CALM      29.97S
WINK           CLOUDY    74  67  78 E14       29.94S
$$
...OTHER STATIONS IN TEXAS...

CITY           SKY/WX    TMP DP  RH WIND       PRES   REMARKS
ABILENE        CLOUDY    73  68  84 S5        29.93S
AMARILLO       MOCLDY    67  64  90 SW5       30.03F
AUSTIN         TSTM      77  75  93 SE7       29.89S
BROWNSVILLE    PTCLDY    78  76  93 S6        29.88F
CORPUS CHRISTI PTCLDY    78  76  93 S6        29.86F
DALLAS FTW     CLOUDY    77  72  84 S7        29.88F
DEL RIO        CLOUDY    81  73  76 E8        29.85F
EL PASO        CLOUDY    66  64  93 N14       30.00F
HOUSTON INT    CLOUDY    76  75  97 CALM      29.90F
LUBBOCK        CLOUDY    66  63  90 S8        30.00S
SAN ANGELO     PTCLDY    73  68  84 N3        29.94S
SAN ANTONIO    CLOUDY    80  75  84 S12       29.90S
WACO           MOCLDY    73  72  96 SW5       29.89F
WICHITA FALLS  NOT AVBL
$$
...OTHER LOCATIONS IN NEW MEXICO...

CITY           SKY/WX    TMP DP  RH WIND       PRES   REMARKS
ALAMAGORDO     CLOUDY    66  66 100 SW3       30.05S FOG
ALBUQUERQUE    CLOUDY    65  57  75 CALM      30.11S
CANNON AFB     MOCLDY    64  61  88 S3        30.06F
CLOVIS           N/A     63  61  94 S10       30.07F
HOLLOMAN AFB   CLOUDY    68  68 100 CALM      30.03F
ROSWELL        CLOUDY    68  65  90 E6        30.01R
RUIDOSO        CLOUDY    59  57  94 SW6       30.20F
SANTA FE       PTCLDY    54  46  74 NW5       30.16S
TRUTH OR CONSE LGT RAIN  66  62  87 SW3       30.08S
TUCUMCARI      MOCLDY    64  59  83 SE5       30.04R
$$

USA.gov is the U.S. government's official web portal to all federal, state and local government web resources and services.